Temperature
5 5 5 5 5 5 5 5 5 4 4 4 5 5 5 5 4 4 4 4 4 4 4 4 4 3 3 3 3 3 3 3 3 3 3 3 3 3
5 5 5 5 4 4 4 4 4 4 4 4 4 4 4 4 4 4 4 3 3 3 3 3 3 3 3 3 3 3 3 3 3 3 2 2 2 2
5 5 4 4 4 4 4 4 4 4 3 3 4 4 4 4 4 3 3 3 3 3 3 3 2 2 2 2 2 2 2 2 2 2 2 2 2 2
4 4 4 4 4 3 3 3 3 3 3 3 3 3 3 3 3 3 3 3 3 2 2 2 2 2 2 2 2 2 2 2 1 1 1 1 1 1
4 4 4 3 3 3 3 3 3 3 3 3 3 2 2 2 2 2 2 2 2 2 2 2 2 1 1 1 1 1 1 1 1 1 1 1 1 1
3 3 3 3 3 3 3 3 2 2 2 2 2 2 2 2 2 2 2 2 2 2 1 1 1 1 1 1 1 1 1 0 0 0 0 0 0 0
3 3 3 3 3 2 2 2 2 2 2 2 2 1 1 1 1 1 1 1 1 1 1 1 1 1 1 0 0 0 0 -0 -0 -0 -0 -0 -0 -0
3 2 2 2 2 2 2 2 2 1 1 1 1 1 1 1 1 1 0 0 0 0 0 0 0 -0 -0 -0 -0 -0 -1 -1 -1 -1 -1 -1 -1 -1
2 2 2 2 2 2 1 1 1 1 1 0 0 0 0 0 -0 -0 -0 -0 -0 -0 -1 -0 -0 -0 -0 -1 -1 -1 -1 -1 -1 -1 -1 -1 -1 -1
2 1 1 1 1 1 1 1 1 1 0 -0 -0 -0 -0 -1 -1 -1 -1 -1 -1 -1 -1 -1 -1 -1 -1 -1 -1 -1 -1 -1 -1 -1 -1 -1 -1 -1
1 1 1 1 1 1 0 0 0 0 -0 -0 -1 -1 -1 -1 -1 -1 -1 -2 -2 -2 -2 -2 -2 -2 -1 -1 -1 -1 -2 -2 -2 -2 -2 -2 -2 -2
1 0 0 0 0 0 -0 -0 -0 -0 -1 -1 -1 -1 -1 -1 -2 -2 -2 -2 -2 -3 -2 -3 -3 -3 -3 -2 -2 -2 -2 -2 -2 -2 -2 -2 -2 -2
0 0 -0 -0 -1 -1 -1 -1 -1 -1 -1 -1 -1 -2 -2 -2 -2 -2 -2 -2 -3 -3 -3 -3 -4 -4 -4 -3 -2 -2 -2 -3 -2 -2 -3 -2 -2 -3
-0 -0 -1 -1 -1 -1 -1 -1 -1 -2 -2 -2 -2 -2 -2 -2 -2 -2 -3 -3 -3 -3 -3 -4 -4 -4 -4 -4 -4 -3 -3 -3 -3 -3 -3 -3 -3 -3
-1 -1 -1 -1 -1 -2 -2 -2 -2 -2 -2 -2 -2 -3 -3 -3 -3 -3 -3 -3 -3 -3 -4 -4 -4 -4 -4 -4 -4 -4 -4 -3 -3 -3 -3 -3 -3 -3
-1 -2 -2 -2 -2 -2 -2 -2 -2 -2 -3 -3 -3 -3 -3 -3 -3 -4 -4 -4 -4 -4 -4 -4 -4 -4 -5 -4 -4 -4 -4 -4 -4 -4 -4 -3 -3 -3
-2 -2 -2 -2 -3 -3 -3 -3 -3 -3 -3 -3 -3 -4 -4 -4 -4 -4 -4 -4 -4 -4 -4 -4 -5 -5 -5 -5 -5 -5 -5 -5 -4 -4 -4 -4 -4 -4
-2 -2 -3 -3 -3 -3 -3 -3 -3 -4 -4 -4 -4 -4 -4 -4 -4 -5 -5 -5 -5 -5 -5 -5 -5 -5 -5 -5 -5 -5 -5 -5 -5 -5 -5 -5 -4 -4
-3 -3 -3 -3 -3 -4 -4 -4 -4 -4 -4 -4 -4 -5 -5 -5 -5 -5 -5 -5 -5 -5 -5 -5 -6 -6 -6 -6 -5 -5 -6 -6 -5 -5 -5 -5 -5 -4
-3 -3 -4 -4 -4 -4 -4 -4 -4 -5 -5 -5 -5 -5 -5 -5 -5 -5 -5 -6 -6 -6 -6 -6 -6 -6 -7 -7 -6 -6 -6 -6 -6 -6 -5 -5 -5 -5
-4 -4 -4 -4 -5 -5 -5 -5 -5 -5 -5 -5 -5 -5 -5 -5 -5 -6 -6 -6 -6 -6 -6 -6 -6 -7 -7 -7 -7 -6 -6 -6 -6 -6 -6 -6 -6 -5
-4 -4 -4 -5 -5 -5 -5 -5 -5 -5 -5 -5 -5 -5 -6 -6 -6 -6 -6 -6 -6 -6 -7 -7 -7 -7 -7 -7 -7 -7 -6 -6 -6 -6 -6 -7 -7 -7
-5 -5 -5 -5 -5 -5 -5 -6 -6 -6 -6 -6 -6 -6 -6 -6 -6 -6 -7 -7 -7 -7 -7 -7 -7 -7 -7 -7 -7 -7 -7 -7 -6 -6 -6 -6 -7 -7
Wind_Speed
4 4 3 2 2 2 2 3 3 2 3 3 2 2 3 3 4 4 5 6 6 7 7 7 6 7 7 8 9 9 9 10 10 11 12 12 13 14
3 4 3 2 2 2 3 2 2 3 3 3 3 2 2 3 4 4 5 6 7 8 8 8 8 8 8 9 9 10 10 11 11 12 13 13 14 14
3 4 4 4 3 3 3 2 2 2 3 3 2 1 1 2 3 3 5 5 6 8 9 8 8 9 9 10 10 10 11 11 11 12 14 14 14 15
4 4 4 4 4 3 3 3 3 3 3 4 2 1 2 2 2 3 4 5 5 7 8 9 9 9 10 10 11 11 11 11 12 13 14 14 15 15
4 4 5 5 5 4 4 4 3 3 3 3 3 2 2 1 1 2 3 3 5 7 8 8 9 10 10 11 11 11 12 12 13 13 14 15 15 16
3 4 4 5 6 6 5 5 4 3 3 3 2 2 2 1 1 2 3 2 3 5 6 7 9 10 11 11 12 12 13 13 14 14 15 15 15 15
3 3 4 5 6 5 5 5 5 4 3 3 2 2 2 2 2 2 3 3 3 2 3 5 6 7 9 11 11 12 13 14 14 15 15 15 15 16
3 3 3 3 4 5 5 6 6 5 5 4 3 4 4 3 2 2 3 2 3 2 2 4 4 4 7 9 12 13 13 14 14 14 15 15 16 16
4 3 3 3 3 3 3 3 4 6 6 5 5 5 5 5 4 3 4 4 4 3 2 5 3 5 7 10 13 13 13 13 14 14 15 15 15 16
4 4 4 4 4 4 3 3 3 3 4 4 5 5 5 4 4 5 4 3 3 3 2 4 4 4 6 9 12 12 12 12 13 14 14 14 15 15
4 4 4 4 5 5 4 4 3 3 3 4 4 4 4 4 3 1 1 2 4 3 2 2 3 4 5 5 8 10 11 12 12 12 13 13 13 13
3 3 5 4 5 5 4 5 4 4 3 2 2 2 2 2 3 3 3 3 2 3 2 2 2 2 3 3 4 7 8 10 11 11 12 12 12 9
3 3 3 4 4 5 4 4 5 4 3 3 2 2 1 1 1 2 2 3 4 4 2 1 2 2 3 4 4 4 5 6 7 8 10 11 11 8
4 3 3 4 4 4 3 4 4 3 2 2 2 2 2 2 2 2 3 3 4 5 5 3 3 3 4 5 5 4 5 6 5 5 7 10 10 9
3 4 4 4 3 2 2 3 3 2 2 2 2 3 2 2 1 1 2 2 3 4 4 4 4 4 4 5 5 4 4 4 4 4 5 6 6 6
3 3 3 2 1 1 1 1 2 2 3 3 2 2 1 1 1 1 2 2 2 3 3 4 5 4 4 5 5 6 4 4 4 4 5 5 6 6
3 2 1 1 1 0 0 0 1 1 1 1 1 1 1 1 2 1 1 1 2 3 3 3 5 5 5 4 4 5 5 4 4 4 4 5 5 6
4 3 2 2 2 2 2 1 1 1 2 2 2 2 2 2 2 1 1 2 2 3 3 3 3 3 3 3 5 5 4 4 4 4 3 4 5 5
3 3 3 3 2 2 2 2 2 1 1 2 2 2 2 2 2 2 2 2 2 3 3 2 2 1 3 4 4 4 3 4 4 4 3 3 5 6
2 3 3 2 2 2 2 2 1 1 1 1 1 1 2 1 1 2 2 2 3 3 3 2 2 2 4 4 4 4 6 4 3 4 4 4 4 6
2 2 2 2 2 2 2 2 2 2 2 2 1 1 2 2 2 2 2 4 3 3 4 4 4 5 3 1 3 3 4 6 6 4 3 3 4 3
1 1 1 2 2 2 1 1 1 2 2 2 2 2 2 2 2 3 3 3 3 3 4 4 3 2 1 2 4 5 5 5 7 8 6 4 2 2
1 1 1 1 1 2 2 2 2 2 2 2 2 2 2 2 2 3 3 3 3 3 3 3 2 2 2 3 3 4 5 5 4 4 5 7 7 8
Wind_Direction
185 180 184 186 175 179 172 171 173 217 252 245 239 228 229 228 234 232 240 250 260 267 273 274 278 283 285 287 289 289 286 285 282 282 280 280 281 285
187 177 188 184 178 176 174 174 184 201 237 242 236 239 240 249 251 255 252 257 262 265 271 272 275 278 280 279 281 284 282 279 278 279 280 280 281 284
184 184 196 183 182 182 174 177 192 193 230 262 258 246 244 246 279 271 267 262 263 266 270 271 273 274 276 279 278 279 279 276 276 277 278 277 279 279
196 194 202 188 184 187 183 186 201 203 208 237 260 254 253 248 259 265 273 266 267 269 272 273 271 272 276 276 275 274 274 273 275 278 276 275 276 277
201 196 201 186 195 195 190 195 199 200 194 204 238 252 263 263 268 282 284 277 278 274 273 272 271 275 278 277 275 274 272 271 273 275 276 274 274 276
209 203 203 197 199 196 198 199 191 185 182 190 218 244 251 263 244 272 294 287 288 288 277 277 278 277 278 278 274 272 272 272 273 275 275 274 274 274
212 212 214 209 207 205 204 195 186 188 190 201 221 244 249 254 251 255 273 288 288 270 276 284 285 281 281 279 275 272 273 274 274 275 275 276 275 275
208 211 215 214 213 214 214 209 199 198 202 213 226 231 240 238 236 256 262 283 280 262 271 286 282 274 277 276 275 276 276 276 277 278 278 278 278 276
206 204 214 214 209 198 209 218 226 231 225 215 220 232 234 229 218 238 250 260 269 271 274 278 278 271 277 279 279 278 278 279 280 282 281 280 279 279
208 208 206 211 209 197 192 203 223 236 233 221 221 233 233 222 218 227 236 252 283 283 248 262 274 273 290 286 278 276 282 283 284 283 282 284 284 283
212 208 205 210 213 204 194 202 219 241 242 226 236 246 248 245 228 207 222 256 285 284 241 243 272 292 289 278 280 285 288 291 291 289 288 289 289 288
210 209 208 212 220 214 203 200 215 227 211 213 238 262 269 254 236 216 214 236 269 271 234 236 271 302 298 281 283 294 294 297 297 294 294 294 295 290
208 217 216 215 227 227 219 212 218 213 200 198 212 235 251 246 243 245 227 222 240 253 243 231 260 266 266 292 299 293 295 301 301 295 298 298 296 289
207 211 209 210 225 231 228 217 212 200 186 196 217 237 243 248 252 259 256 251 242 248 248 237 243 257 275 286 290 299 305 299 291 295 300 301 297 293
197 196 202 207 208 218 214 217 202 185 193 210 229 242 240 239 246 276 293 294 293 281 262 253 246 254 255 264 275 286 302 301 293 301 304 302 293 288
171 176 183 173 148 170 193 201 194 197 205 216 226 244 244 246 258 265 276 293 301 306 308 292 270 250 256 262 263 275 279 281 299 304 305 302 294 287
156 142 137 136 142 133 103 175 199 197 210 222 220 235 252 269 276 280 273 285 275 285 303 318 313 289 263 253 265 268 276 283 283 295 305 303 295 291
152 161 177 184 191 199 205 210 216 218 215 207 211 219 236 247 265 279 272 262 274 284 288 300 321 333 329 292 240 257 272 277 289 294 291 294 295 299
160 173 183 190 195 198 202 208 222 228 217 204 207 213 225 241 253 264 270 278 281 280 282 285 286 296 304 302 294 245 259 287 297 297 287 281 285 294
163 172 179 182 191 198 201 201 204 216 224 216 207 209 215 230 244 255 259 265 277 286 290 284 266 252 252 263 278 287 280 277 284 291 296 298 291 294
157 160 167 176 188 194 198 199 201 211 218 214 212 215 212 218 238 247 257 275 279 277 282 280 269 285 268 261 286 290 295 294 290 284 289 304 307 312
165 170 174 179 183 188 192 197 205 213 209 210 217 225 226 225 240 251 255 261 267 269 275 280 287 297 241 251 275 287 300 313 318 313 298 269 262 279
174 176 179 184 190 191 193 199 207 220 219 212 218 230 233 242 250 251 257 261 269 276 284 291 299 292 268 259 269 282 292 304 315 323 314 311 301 291
Height
1497 1498 1499 1501 1502 1504 1505 1507 1508 1507 1508 1509 1511 1512 1513 1514 1514 1515 1516 1516 1517 1517 1517 1517 1517 1517 1517 1517 1517 1516 1516 1516 1516 1515 1515 1514 1514 1514
1493 1494 1496 1497 1499 1500 1502 1503 1504 1505 1505 1505 1507 1508 1508 1509 1510 1510 1511 1511 1512 1512 1512 1512 1512 1512 1511 1512 1512 1511 1511 1511 1510 1510 1509 1508 1508 1508
1489 1491 1492 1493 1495 1496 1498 1499 1501 1502 1501 1502 1503 1503 1504 1504 1505 1506 1506 1506 1506 1507 1507 1507 1506 1506 1506 1506 1506 1505 1505 1505 1504 1504 1503 1502 1502 1501
1486 1487 1488 1489 1491 1492 1494 1495 1497 1497 1498 1498 1498 1499 1499 1500 1500 1500 1501 1501 1501 1501 1501 1501 1501 1500 1500 1500 1499 1499 1499 1499 1498 1497 1497 1496 1495 1495
1482 1483 1484 1485 1487 1488 1490 1491 1492 1493 1494 1494 1494 1495 1495 1495 1495 1496 1496 1496 1496 1497 1496 1496 1496 1495 1494 1494 1494 1493 1493 1492 1492 1491 1490 1489 1489 1488
1479 1480 1481 1482 1483 1484 1486 1487 1488 1489 1490 1490 1490 1490 1490 1491 1491 1491 1491 1491 1491 1492 1491 1491 1490 1490 1489 1489 1488 1487 1486 1486 1485 1484 1483 1483 1482 1481
1475 1476 1477 1478 1479 1481 1482 1483 1484 1485 1485 1486 1486 1486 1486 1486 1487 1487 1486 1486 1486 1486 1486 1486 1485 1484 1484 1483 1482 1481 1480 1479 1478 1477 1477 1476 1475 1474
1471 1472 1473 1474 1475 1476 1478 1479 1480 1480 1481 1481 1482 1482 1481 1482 1483 1483 1482 1482 1480 1481 1480 1480 1480 1478 1478 1477 1476 1475 1474 1473 1472 1471 1470 1469 1468 1467
1468 1468 1469 1470 1471 1472 1473 1474 1475 1476 1477 1477 1477 1477 1478 1478 1478 1478 1478 1477 1476 1476 1475 1473 1474 1472 1472 1471 1470 1469 1468 1466 1465 1464 1463 1462 1461 1459
1464 1465 1465 1466 1467 1468 1469 1469 1470 1471 1472 1472 1473 1473 1474 1474 1474 1474 1473 1473 1472 1471 1471 1468 1467 1467 1466 1465 1464 1463 1462 1460 1459 1458 1456 1455 1454 1452
1460 1461 1461 1462 1463 1464 1465 1465 1465 1466 1467 1468 1468 1469 1469 1469 1470 1470 1469 1468 1466 1465 1465 1464 1462 1461 1459 1459 1458 1457 1456 1454 1453 1451 1450 1448 1447 1446
1455 1456 1457 1458 1459 1460 1460 1461 1461 1461 1462 1463 1463 1464 1464 1465 1465 1465 1464 1464 1462 1461 1460 1460 1458 1457 1454 1452 1452 1451 1450 1449 1447 1445 1444 1442 1440 1439
1450 1452 1453 1454 1455 1455 1456 1456 1457 1458 1458 1458 1458 1459 1459 1460 1460 1460 1460 1459 1458 1457 1457 1455 1453 1452 1451 1448 1446 1446 1445 1443 1441 1439 1438 1437 1435 1434
1446 1447 1448 1449 1450 1451 1452 1452 1453 1453 1454 1454 1454 1454 1454 1455 1455 1455 1455 1454 1454 1453 1452 1451 1450 1448 1447 1444 1441 1439 1439 1437 1435 1434 1433 1431 1430 1429
1442 1443 1444 1445 1446 1446 1447 1448 1448 1449 1449 1449 1449 1450 1450 1450 1450 1450 1450 1450 1449 1449 1448 1447 1446 1444 1443 1440 1437 1435 1433 1432 1431 1429 1427 1426 1425 1423
1438 1439 1440 1441 1442 1442 1443 1444 1444 1445 1445 1446 1446 1446 1446 1446 1446 1446 1446 1445 1444 1444 1444 1443 1441 1440 1437 1436 1434 1431 1430 1428 1426 1425 1423 1422 1421 1419
1434 1435 1436 1437 1438 1438 1439 1440 1440 1441 1441 1442 1442 1442 1442 1442 1442 1442 1441 1441 1440 1439 1438 1438 1437 1435 1433 1432 1429 1427 1426 1424 1422 1421 1419 1417 1416 1415
1430 1431 1432 1433 1434 1435 1435 1436 1437 1437 1438 1438 1438 1438 1438 1438 1438 1438 1437 1437 1436 1435 1434 1433 1432 1430 1429 1427 1426 1424 1422 1420 1419 1417 1416 1413 1412 1411
1426 1427 1428 1429 1430 1431 1432 1432 1433 1433 1434 1434 1434 1435 1435 1434 1434 1434 1433 1433 1432 1432 1431 1430 1428 1426 1424 1422 1422 1421 1419 1416 1415 1414 1412 1411 1409 1407
1423 1424 1425 1426 1427 1428 1429 1429 1429 1430 1430 1431 1431 1431 1431 1431 1431 1431 1430 1429 1429 1428 1427 1426 1425 1423 1422 1421 1418 1417 1417 1414 1412 1410 1409 1407 1406 1405
1420 1421 1422 1423 1424 1425 1425 1426 1426 1426 1427 1427 1427 1427 1427 1427 1427 1427 1427 1426 1425 1424 1423 1422 1421 1421 1419 1418 1416 1413 1413 1412 1410 1408 1406 1404 1402 1401
1418 1419 1420 1421 1421 1422 1422 1422 1423 1423 1423 1423 1424 1424 1424 1424 1424 1423 1423 1422 1421 1420 1420 1419 1418 1417 1416 1414 1412 1411 1409 1409 1408 1406 1405 1403 1401 1398
1415 1416 1417 1418 1418 1419 1419 1419 1420 1420 1420 1420 1420 1420 1420 1420 1420 1420 1419 1419 1418 1417 1416 1415 1415 1414 1413 1411 1410 1408 1407 1405 1404 1402 1402 1401 1400 1398